This is the latest recevied weather packets stored in our database for station/object KD8FRE. If no packets are shown the sender has not sent any weather packets the latest 10 day(s).
| Time | Temp. | Humidity | Pressure | Rain* | Wind** | Luminosity | Snow |
|---|---|---|---|---|---|---|---|
| 1778103703 | 10.56° C | 44% | 1012.7 hPa | 0 mm | - | 84 W/m² | - |
| 1778103402 | 10.56° C | 45% | 1012.8 hPa | 0 mm | - | 89 W/m² | - |
| 1778103098 | 10.56° C | 43% | 1012.9 hPa | 0 mm | - | 117 W/m² | - |
| 1778102796 | 10.56° C | 43% | 1012.7 hPa | 0 mm | - | 87 W/m² | - |
| 1778102490 | 10.56° C | 44% | 1012.6 hPa | 0 mm | - | 91 W/m² | - |
| 1778102186 | 10.56° C | 44% | 1013 hPa | 0 mm | - | 114 W/m² | - |
| 1778101883 | 10.56° C | 45% | 1012.8 hPa | 0 mm | - | 130 W/m² | - |
| 1778101580 | 10.56° C | 45% | 1012.8 hPa | 0 mm | - | 133 W/m² | - |
| 1778101277 | 10.56° C | 46% | 1012.7 hPa | 0 mm | - | 163 W/m² | - |
| 1778100974 | 10.56° C | 44% | 1012.8 hPa | 0 mm | - | 163 W/m² | - |
| 1778100668 | 10.56° C | 43% | 1013 hPa | 0 mm | - | 156 W/m² | - |
| 1778100367 | 10.56° C | 45% | 1012.8 hPa | 0 mm | - | 153 W/m² | - |
| 1778100064 | 10° C | 44% | 1012.8 hPa | 0 mm | - | 122 W/m² | - |
| 1778099762 | 10.56° C | 45% | 1012.9 hPa | 0 mm | - | 116 W/m² | - |
| 1778099458 | 10.56° C | 44% | 1012.9 hPa | 0 mm | - | 109 W/m² | - |
| 1778099156 | 10.56° C | 44% | 1013.1 hPa | 0 mm | - | 142 W/m² | - |
| 1778098852 | 10.56° C | 44% | 1012.9 hPa | 0 mm | - | 149 W/m² | - |
| 1778098550 | 10.56° C | 45% | 1012.5 hPa | 0 mm | - | 148 W/m² | - |
| 1778098246 | 10° C | 45% | 1012.7 hPa | 0 mm | - | 168 W/m² | - |
| 1778097942 | 10° C | 45% | 1012.9 hPa | 0 mm | - | 104 W/m² | - |
| 1778097639 | 10° C | 44% | 1013.2 hPa | 0 mm | - | 63 W/m² | - |
| 1778097336 | 10° C | 45% | 1013 hPa | 0 mm | - | 91 W/m² | - |
| 1778097032 | 10° C | 44% | 1012.9 hPa | 0 mm | - | 122 W/m² | - |
| 1778096730 | 10.56° C | 45% | 1012.9 hPa | 0 mm | - | 160 W/m² | - |
| 1778096426 | 10.56° C | 46% | 1013 hPa | 0 mm | - | 464 W/m² | - |
* Rain latest hour (hover to see other rain measurements)
** Current wind speed in m/s (hover to see current wind gust speed)